LEOPARD

Last updated on Wed Aug 19 2026 00:02:05 GMT+0000 (Coordinated Universal Time)

1 67687U 98067YD 26230.53338817 .00092067 00000+0 79720-3 0 9996 2 67687 51.6280 338.3844 0006846 26.0093 334.1247 15.68368340 29969
UTC large
Height (km)
Speed (km/s)
/
Latitude / Longitude
Inclination (degrees)
Orbital Period (minutes)
Azimuth
Elevation
Range (km)
Doppler Factor

Next 0 passes for location: London (51.5072 / 0.1276)

No passes found over London.
LEOPARD